Reading, PA

5:17 AM EDT on June 28, 2017 (GMT -0400)
Reading Regional-Spaatz

Weather History for KRDG - December, 2013

Change the Weather History Date:

Sunday, December 8, 2013

  Actual Average Record
Temperature  
Mean Temperature 28 °F 36 °F  
Max Temperature 31 °F 44 °F 69 °F (1980)
Min Temperature 24 °F 28 °F 10 °F (1970)
Degree Days  
Heating Degree Days 37 29  
Month to date heating degree days 196 223  
Since 1 July heating degree days 1245 1290  
Cooling Degree Days 0 0  
Month to date cooling degree days 0 0  
Year to date cooling degree days 1124 896  
Moisture  
Dew Point 22 °F    
Average Humidity 73    
Maximum Humidity 92    
Minimum Humidity 53    
Precipitation  
Precipitation 0.12 in 0.12 in 1.22 in (1974)
Month to date precipitation 1.08 0.94  
Year to date precipitation 38.46 40.92  
Sea Level Pressure  
Sea Level Pressure 30.49 in    
Wind  
Wind Speed 4 mph (NE)    
Max Wind Speed 9 mph    
Max Gust Speed 13 mph    
Visibility 5 miles    
Events Fog , Rain , Snow    
T = Trace of Precipitation, MM = Missing Value Source: NWS Daily Summary

Daily Weather History Graph

Daily Weather History Graph

Search for Another Location

Airport or City:

Trip Planner

Search our weather history database for the weather conditions in past years. The results will help you decide how hot, cold, wet, or windy it might be!

Date:

Astronomy

Dec. 08, 2013 Rise Set
Actual Time 7:14 AM EST 4:37 PM EST
Civil Twilight 6:43 AM EST 5:07 PM EST
Nautical Twilight 6:09 AM EST 5:41 PM EST
Astronomical Twilight 5:36 AM EST 6:14 PM EST
Moon 11:32 AM EST (12/8) 11:25 PM EST (12/8)
Length of Visible Light 10h 24m
Length of Day
9h 22m
Waxing Crescent, 40% of the Moon is Illuminated
Dec 8
Waxing Crescent
Dec 9
First Quarter
Dec 17
Full
Dec 25
Last Quarter
Jan 1
New

Hourly Weather History & Observations

Time (EST) Temp. Windchill Dew Point Humidity Pressure Visibility Wind Dir Wind Speed Gust Speed Precip Events Conditions
12:54 AM 28.9 °F 22.8 °F 17.1 °F 61% 30.56 in 10.0 mi North 5.8 mph - N/A   Clear
1:54 AM 27.0 °F 19.5 °F 15.1 °F 61% 30.57 in 10.0 mi North 6.9 mph - N/A   Clear
2:54 AM 25.0 °F 19.3 °F 15.1 °F 66% 30.60 in 10.0 mi NW 4.6 mph - N/A   Clear
3:54 AM 26.1 °F 18.4 °F 15.1 °F 63% 30.57 in 10.0 mi North 6.9 mph - N/A   Clear
4:54 AM 26.1 °F 21.9 °F 15.1 °F 63% 30.58 in 10.0 mi North 3.5 mph - N/A   Clear
5:54 AM 26.1 °F - 14.0 °F 60% 30.58 in 10.0 mi Calm Calm - N/A   Clear
6:54 AM 27.0 °F - 15.1 °F 61% 30.60 in 10.0 mi Calm Calm - N/A   Clear
7:54 AM 27.0 °F 23.0 °F 15.1 °F 61% 30.61 in 10.0 mi North 3.5 mph - N/A   Clear
8:54 AM 28.0 °F 21.7 °F 14.0 °F 56% 30.58 in 10.0 mi NE 5.8 mph - N/A   Overcast
9:54 AM 28.0 °F 20.0 °F 15.1 °F 58% 30.60 in 10.0 mi NNE 8.1 mph - N/A   Overcast
10:54 AM 28.9 °F 25.2 °F 15.1 °F 56% 30.59 in 10.0 mi ENE 3.5 mph - N/A   Overcast
11:54 AM 30.0 °F 26.5 °F 15.1 °F 54% 30.57 in 10.0 mi East 3.5 mph - N/A   Overcast
12:54 PM 30.0 °F 25.2 °F 17.1 °F 59% 30.55 in 10.0 mi East 4.6 mph - N/A   Overcast
1:38 PM 28.4 °F 21.2 °F 21.2 °F 74% 30.51 in 1.8 mi SE 6.9 mph - 0.00 in Snow Light Snow
1:54 PM 28.0 °F 24.2 °F 23.0 °F 81% 30.52 in 1.8 mi SE 3.5 mph - 0.00 in Snow Light Snow
2:02 PM 28.4 °F - 23.0 °F 80% 30.49 in 2.0 mi Calm Calm - 0.00 in Snow Light Snow
2:19 PM 28.4 °F 23.3 °F 21.2 °F 74% 30.48 in 2.5 mi East 4.6 mph - 0.00 in Snow Light Snow
2:35 PM 28.4 °F - 21.2 °F 74% 30.48 in 1.8 mi Calm Calm - 0.00 in Snow Light Snow
2:54 PM 27.0 °F 23.0 °F 23.0 °F 85% 30.51 in 1.5 mi East 3.5 mph - 0.01 in Snow Light Snow
3:23 PM 26.6 °F - 23.0 °F 86% 30.50 in 0.8 mi Calm Calm - 0.02 in Snow Light Snow
3:31 PM 26.6 °F 22.6 °F 24.8 °F 93% 30.49 in 0.5 mi ENE 3.5 mph - 0.03 in Fog , Snow Snow
3:54 PM 27.0 °F 23.0 °F 24.1 °F 89% 30.52 in 0.5 mi East 3.5 mph - 0.05 in Fog , Snow Snow
4:08 PM 26.6 °F 22.6 °F 24.8 °F 93% 30.49 in 0.2 mi ENE 3.5 mph - 0.02 in Fog , Snow Heavy Snow
4:17 PM 26.6 °F 22.6 °F 24.8 °F 93% 30.49 in 0.5 mi NE 3.5 mph - 0.02 in Fog , Snow Snow
4:24 PM 26.6 °F - 24.8 °F 93% 30.49 in 1.0 mi Calm Calm - 0.03 in Snow Light Snow
4:34 PM 26.6 °F 21.2 °F 24.8 °F 93% 30.47 in 0.8 mi ENE 4.6 mph - 0.03 in Snow Light Snow
4:40 PM 26.6 °F 22.6 °F 24.8 °F 93% 30.48 in 1.0 mi ENE 3.5 mph - 0.04 in Snow Light Snow
4:54 PM 27.0 °F - 24.1 °F 89% 30.50 in 2.0 mi Calm Calm - 0.04 in Snow Light Snow
5:01 PM 26.6 °F - 24.8 °F 93% 30.47 in 1.8 mi Calm Calm - 0.00 in Snow Light Snow
5:12 PM 26.6 °F - 24.8 °F 93% 30.47 in 2.5 mi Calm Calm - 0.00 in Snow Light Snow
5:21 PM 26.6 °F 22.6 °F 24.8 °F 93% 30.47 in 3.0 mi NE 3.5 mph - 0.00 in Snow Light Snow
5:43 PM 28.4 °F 22.2 °F 23.0 °F 80% 30.46 in 9.0 mi ENE 5.8 mph - 0.01 in   Overcast
5:54 PM 28.0 °F 21.7 °F 23.0 °F 81% 30.49 in 10.0 mi ENE 5.8 mph - 0.01 in   Overcast
6:36 PM 28.4 °F 22.2 °F 23.0 °F 80% 30.47 in 10.0 mi ENE 5.8 mph - N/A   Overcast
6:54 PM 28.0 °F 22.8 °F 24.1 °F 85% 30.47 in 5.0 mi East 4.6 mph - 0.00 in   Overcast
7:15 PM 28.4 °F 24.6 °F 24.8 °F 86% 30.46 in 8.0 mi NNE 3.5 mph - 0.00 in   Overcast
7:54 PM 28.0 °F 21.7 °F 24.1 °F 85% 30.45 in 7.0 mi East 5.8 mph - 0.00 in   Overcast
8:54 PM 28.0 °F 21.7 °F 24.1 °F 85% 30.41 in 5.0 mi East 5.8 mph - 0.00 in   Overcast
9:08 PM 28.4 °F 22.2 °F 24.8 °F 86% 30.38 in 4.0 mi ENE 5.8 mph - 0.00 in Rain Light Freezing Rain
9:33 PM 28.4 °F 24.6 °F 24.8 °F 86% 30.37 in 4.0 mi ENE 3.5 mph - 0.00 in Rain Light Freezing Rain
9:54 PM 28.0 °F 24.2 °F 26.1 °F 92% 30.40 in 3.0 mi ENE 3.5 mph - 0.00 in Rain Light Freezing Rain
10:11 PM 28.4 °F 24.6 °F 26.6 °F 93% 30.37 in 2.0 mi North 3.5 mph - 0.00 in Rain Light Freezing Rain
10:54 PM 28.0 °F 22.8 °F 26.1 °F 92% 30.39 in 2.0 mi NNE 4.6 mph - 0.01 in Rain Light Freezing Rain
11:35 PM 28.4 °F 23.3 °F 26.6 °F 93% 30.33 in 2.5 mi NE 4.6 mph - 0.00 in Rain Light Freezing Rain
11:52 PM 28.4 °F 23.3 °F 26.6 °F 93% 30.32 in 2.5 mi NNE 4.6 mph - 0.00 in Rain Light Freezing Rain
11:54 PM 28.9 °F 21.9 °F 26.1 °F 89% 30.35 in 2.5 mi NNE 6.9 mph - 0.00 in Rain Light Freezing Rain